Flag for Germany Weather past 2 weeks in Gronau (Westfalen), North Rhine-Westphalia, Germany

Now
52 °F

Cool.


Feels Like: 51 °F
Forecast: 47 / 58 °F
Wind: 3 mph from Southwest

Location: Rheine-Bentlage

Current Time: May 25, 2015 at 5:54:40 AM

Latest Report: May 25, 2015 at 4:20 AM


Visibility: N/A

Pressure: 29.98 "Hg

Humidity: 72%

Dew point: 43 °F

Location of Gronau (Westfalen)Location

Historic Weather in Gronau (Westfalen) — Graph

°F

Gronau (Westfalen) temperature yesterday

Maximum temperature yesterday: 66 °F (at 5:20 PM)
Minimum temperature yesterday: 39 °F (at 4:20 AM)
Average temperature yesterday: 54 °F

Past Weeks' High & Low Weather Summary

 TemperatureHumidityPressure
High77 °F (May 11, 4:20 PM)100% (May 16, 5:20 AM)30.33 "Hg (May 16, 5:20 AM)
Low37 °F (May 16, 3:20 AM)36% (May 11, 4:20 PM)29.59 "Hg (May 18, 7:20 PM)
Average54 °F69%30.07 "Hg
* Reported May 10 4:20 AM — May 25 4:20 AM, Gronau (Westfalen), Weather by CustomWeather, © 2015

Note: Actual official high and low records may vary slightly from our data, if they occured in-between our weather recording intervals... More about our weather records

Advertising

Gronau (Westfalen) weather history for previous 24 hours

 ConditionsComfort  
Time TempWeatherWind HumidityBarometerVisibility
4:20 AM
Mon, May 25
52 °FCool.3 mph72%29.98 "HgN/A
3:20 AM52 °FCool.2 mph82%29.98 "HgN/A
2:20 AM52 °FCool.2 mph77%30.01 "HgN/A
1:20 AM52 °FCool.2 mph77%30.01 "HgN/A
12:20 AM50 °FCool.1 mph82%30.01 "HgN/A
11:20 PM
Sun, May 24
50 °FCool.3 mph76%30.04 "HgN/A
10:20 PM54 °FCool.2 mph72%30.04 "HgN/A
9:20 PM57 °FCool.2 mph63%30.01 "HgN/A
8:20 PM64 °FMild.5 mph43%30.01 "HgN/A
7:20 PM66 °FMild.6 mph37%30.04 "HgN/A
6:20 PM66 °FMild.3 mph37%30.04 "HgN/A
5:20 PM66 °FMild.6 mph37%30.04 "HgN/A
4:20 PM64 °FMild.3 mph43%30.07 "HgN/A
3:20 PM64 °FMild.5 mph43%30.07 "HgN/A
2:20 PM64 °FMild.2 mph46%30.09 "HgN/A
1:20 PM61 °FRefreshingly cool.3 mph52%30.09 "HgN/A
12:20 PM59 °FRefreshingly cool.3 mph55%30.12 "HgN/A
11:20 AM57 °FRefreshingly cool.5 mph59%30.12 "HgN/A
10:20 AM54 °FCool.2 mph67%30.15 "HgN/A
9:20 AM52 °FCool.2 mph67%30.15 "HgN/A
8:20 AM50 °FCool.2 mph71%30.15 "HgN/A
7:20 AM45 °FQuite cool.2 mph87%30.15 "HgN/A
6:20 AM39 °FChilly.No wind93%30.15 "HgN/A
5:20 AM39 °FChilly.No wind93%30.15 "HgN/A
Weather by CustomWeather, © 2015

See weather overviewHow to use our weather pages